"Pseudo-MPEC" for P120uko

Created 2024 Oct 8 11:22:23 UT using Find_Orb

Click here for an explanation of pseudo-MPECs

 
 Astrometry: 
     P120uko 1C2024 09 11.37922403 04 49.642+04 01 13.73   ~A7Nb 21.08GVNEOCPG96
     P120uko 1C2024 09 11.38440903 04 49.764+04 01 14.27   ~A7Nb 21.33GVNEOCPG96
     P120uko 1C2024 09 11.38959603 04 49.879+04 01 14.48   ~A7Nb 20.62GVNEOCPG96
     P120uko 1C2024 09 11.39478003 04 49.976+04 01 14.70   ~A7Nb 21.07GVNEOCPG96
     P120uko  C2024 09 14.57431803 05 56.715+04 04 07.41   ~A7Nb 21.05wXNEOCPF51
     P120uko  C2024 09 14.58605803 05 56.911+04 04 08.12   ~A7Nb 21.17wXNEOCPF51
     P120uko  C2024 09 14.60622503 05 57.249+04 04 08.91   ~A7Nb 21.29wXNEOCPF51
     P120uko  C2024 09 26.59120003 08 00.842+04 12 18.34   ~A7Nb 20.22GVNEOCPF52
     P120uko  C2024 09 26.60053203 08 00.832+04 12 18.72   ~A7Nb 20.37GVNEOCPF52
     P120uko  C2024 09 26.60983903 08 00.820+04 12 18.97   ~A7Nb 20.45GVNEOCPF52
     P120uko  C2024 09 26.61917703 08 00.818+04 12 19.28   ~A7Nb 20.53GVNEOCPF52
     P120uko  C2024 10 03.42001303 07 30.235+04 16 14.74   ~A7Nb 20.04GVNEOCPF52
     P120uko  C2024 10 03.43211203 07 30.089+04 16 15.20   ~A7Nb 20.07GVNEOCPF52
     P120uko  C2024 10 03.44417803 07 29.938+04 16 15.65   ~A7Nb 19.96GVNEOCPF52
     P120uko  C2024 10 03.45617103 07 29.793+04 16 16.10   ~A7Nb 20.06GVNEOCPF52
     P120uko* C2024 10 07.55722303 06 32.357+04 18 59.31   ~A7Gb 20.20wXNEOCPF51
     P120uko  C2024 10 07.57040703 06 32.088+04 18 59.94   ~A7Gb 20.32wXNEOCPF51
     P120uko  C2024 10 07.58366403 06 31.837+04 19 00.35   ~A7Gb 20.22wXNEOCPF51
     P120uko  C2024 10 07.59644703 06 31.575+04 19 00.94   ~A7Gb 20.44wXNEOCPF51
     P120uko KB2024 10 08.06968 03 06 23.13 +04 19 19.5    ~A89M 19.8 GXNEOCPM45
     P120uko KB2024 10 08.07696 03 06 23.00 +04 19 19.9    ~A89M 20.0 GXNEOCPM45
     P120uko KB2024 10 08.08424 03 06 22.83 +04 19 20.5    ~A89M 19.6 GXNEOCPM45
     P120uko KC2024 10 08.22888 03 06 20.40 +04 19 27.2    ~A877 19.3 GXNEOCPW62
     P120uko KC2024 10 08.24420 03 06 20.09 +04 19 28.0    ~A877 19.3 GXNEOCPW62
     P120uko KC2024 10 08.25883 03 06 19.79 +04 19 28.6    ~A877 19.5 GXNEOCPW62

Station data:
(F51) Pan-STARRS 1, Haleakala  (N20.707234 W156.255910)  US/Hawaii.
   Observers J. Bulger, T. Lowe, A. Schultz, M. Willman. Measurers K.
   Chambers, S. Chastel, T. de Boer, L. Denneau, J. Fairlamb, H. Flewelling,
   M. Huber, C.-C. Lin, E. Magnier, Y. Ramanjooloo, R. Wainscoat, R. Weryk.
   1.8-m Ritchey-Chrétien + CCD.
(F52) Pan-STARRS 2, Haleakala  (N20.707382 W156.255910)  US/Hawaii.
   Observers J. Bulger, T. Dukes, T. Lowe, A. Schultz, M. Willman. Measurers
   K. Chambers, S. Chastel, T. de Boer, L. Denneau, J. Fairlamb, H.
   Flewelling, M. Huber, C.-C. Lin, E. Magnier, Y. Ramanjooloo, R. Wainscoat,
   R. Weryk. 1.8-m Ritchey-Chrétien + CCD.
(G96) Mt. Lemmon Survey  (N32.442729 W110.788720)  US/Arizona.  Observer E.
   J. Christensen. 1.5-m reflector + 10K CCD.
(M45) Starhopper Observatory, Sfantu Gheorghe  (N45.865494 E25.768890)
   Romania.  Observer F. Ursache. 0.41-m f/7.5 reflector + CMO.
(W62) Comet Hunter Observatory2, New Ringgold  (N40.745185 W75.862390)
   US/Pennsylvania.  Observer J. Maikner. 0.30-m f/3.8 Riccardi-Honders + CCD.

Orbital elements:  P120uko
   Perihelion 2025 Mar 10.30088 +/- 0.0306 TT =  7:13:16 (JD 2460744.80088)
Epoch 2024 Oct  8.0 TT = JDT 2460591.5   Earth MOID: 0.6685   Ju: 0.0835
M 349.99319900 +/- 0.040            (J2000 ecliptic)             AutoNEOCP
n   0.06527556 +/- 0.000251         Peri.   42.31689 +/- 0.09
a   6.10898378 +/- 0.0156           Node    63.57616 +/- 0.022
e   0.7348364 +/- 0.001             Incl.   14.81988 +/- 0.008
P  15.09918                H 16.74  G  0.15   U  7.2
q 1.61988002 +/- 0.00198    Q 10.5980875 +/- 0.0333
From 25 observations 2024 Sept. 11-Oct. 8; mean residual 0".09
Residuals in arcseconds: 
240911 G96  .10-  .02+    240926 F52  .02-  .07-    241007 F51  .01-  .01-    
240911 G96  .05+  .26+    240926 F52  .07+  .07-    241008 M45  .09-  .11-    
240911 G96  .10+  .16+    241003 F52  .06-  .01+    241008 M45  .15+  .03-    
240911 G96  .12-  .08+    241003 F52  .04-  .01+    241008 M45  .20-  .25+    
240914 F51  .05+  .01+    241003 F52  .08-  .00     241008 W62  .11-  .01-    
240914 F51  .00   .12+    241003 F52  .02-  .01-    241008 W62  .04-  .09+    
240914 F51  .06-  .10-    241007 F51  .07+  .03+    241008 W62  .01-  .02+    
240926 F52  .05+  .08-    241007 F51  .04-  .10+    
240926 F52  .03+  .01-    241007 F51  .13+  .06-    

Ephemerides (geocentric):
Date (UTC) HH   RA             Dec           delta  r     elong  mag " sig PA
---- --------  ------------   ------------  ------ ------ -----  --- --------
2024 10 08 11  03 06 15.950   +04 19 41.30  1.4280 2.3339 147.6 20.1 .030 145
2024 10 08 12  03 06 15.153   +04 19 43.21  1.4274 2.3336 147.7 20.1 .031 144
2024 10 08 13  03 06 14.353   +04 19 45.13  1.4269 2.3333 147.7 20.1 .032 142
2024 10 08 14  03 06 13.550   +04 19 47.05  1.4263 2.3330 147.8 20.1 .033 141
2024 10 08 15  03 06 12.744   +04 19 48.97  1.4258 2.3327 147.8 20.1 .034 140
2024 10 08 16  03 06 11.935   +04 19 50.90  1.4253 2.3324 147.8 20.1 .035 139
2024 10 08 17  03 06 11.123   +04 19 52.84  1.4247 2.3321 147.9 20.1 .036 138
2024 10 08 18  03 06 10.308   +04 19 54.78  1.4242 2.3318 147.9 20.1 .037 137
2024 10 08 19  03 06 09.489   +04 19 56.72  1.4237 2.3315 148.0 20.1 .038 136
2024 10 08 20  03 06 08.668   +04 19 58.67  1.4231 2.3312 148.0 20.1 .039 136
2024 10 08 21  03 06 07.844   +04 20 00.62  1.4226 2.3309 148.0 20.1 .040 135
2024 10 08 22  03 06 07.016   +04 20 02.58  1.4221 2.3306 148.1 20.1 .042 134
2024 10 08 23  03 06 06.186   +04 20 04.54  1.4215 2.3303 148.1 20.1 .043 133
2024 10 09 00  03 06 05.352   +04 20 06.50  1.4210 2.3300 148.2 20.1 .044 133
2024 10 09 01  03 06 04.516   +04 20 08.47  1.4205 2.3297 148.2 20.1 .045 132
2024 10 09 02  03 06 03.677   +04 20 10.45  1.4199 2.3294 148.2 20.1 .047 131
2024 10 09 03  03 06 02.834   +04 20 12.43  1.4194 2.3291 148.3 20.1 .048 131
2024 10 09 04  03 06 01.988   +04 20 14.41  1.4189 2.3288 148.3 20.1 .049 130
2024 10 09 05  03 06 01.140   +04 20 16.40  1.4183 2.3285 148.4 20.1 .051 130
2024 10 09 06  03 06 00.288   +04 20 18.40  1.4178 2.3282 148.4 20.1 .052 129
2024 10 09 07  03 05 59.434   +04 20 20.40  1.4173 2.3279 148.5 20.1 .053 128
2024 10 09 08  03 05 58.576   +04 20 22.40  1.4167 2.3276 148.5 20.1 .055 128
2024 10 09 09  03 05 57.715   +04 20 24.41  1.4162 2.3273 148.5 20.1 .056 127
2024 10 09 10  03 05 56.851   +04 20 26.42  1.4157 2.3270 148.6 20.1 .057 127
2024 10 09 11  03 05 55.985   +04 20 28.44  1.4151 2.3267 148.6 20.1 .059 126
2024 10 09 12  03 05 55.115   +04 20 30.47  1.4146 2.3264 148.7 20.1 .060 126
2024 10 09 13  03 05 54.242   +04 20 32.49  1.4141 2.3261 148.7 20.1 .062 126
2024 10 09 14  03 05 53.366   +04 20 34.53  1.4136 2.3258 148.7 20.1 .063 125
2024 10 09 15  03 05 52.487   +04 20 36.56  1.4130 2.3255 148.8 20.1 .065 125
2024 10 09 16  03 05 51.605   +04 20 38.61  1.4125 2.3252 148.8 20.1 .066 124
2024 10 09 17  03 05 50.720   +04 20 40.66  1.4120 2.3249 148.9 20.1 .068 124
2024 10 09 18  03 05 49.832   +04 20 42.71  1.4114 2.3246 148.9 20.1 .069 124
2024 10 09 19  03 05 48.941   +04 20 44.77  1.4109 2.3243 148.9 20.1 .071 123
2024 10 09 20  03 05 48.047   +04 20 46.83  1.4104 2.3240 149.0 20.1 .073 123
2024 10 09 21  03 05 47.150   +04 20 48.90  1.4099 2.3237 149.0 20.1 .074 122
2024 10 09 22  03 05 46.250   +04 20 50.97  1.4093 2.3234 149.1 20.1 .076 122
2024 10 09 23  03 05 45.347   +04 20 53.05  1.4088 2.3231 149.1 20.1 .077 122
2024 10 10 00  03 05 44.440   +04 20 55.13  1.4083 2.3228 149.2 20.1 .079 121
2024 10 10 01  03 05 43.531   +04 20 57.22  1.4078 2.3225 149.2 20.1 .081 121
2024 10 10 02  03 05 42.619   +04 20 59.32  1.4072 2.3222 149.2 20.1 .082 121
2024 10 10 03  03 05 41.704   +04 21 01.41  1.4067 2.3219 149.3 20.1 .084 121
2024 10 10 04  03 05 40.785   +04 21 03.52  1.4062 2.3216 149.3 20.1 .086 120
2024 10 10 05  03 05 39.864   +04 21 05.63  1.4057 2.3213 149.4 20.1 .088 120
2024 10 10 06  03 05 38.940   +04 21 07.74  1.4051 2.3210 149.4 20.1 .089 120
2024 10 10 07  03 05 38.012   +04 21 09.86  1.4046 2.3207 149.4 20.1 .091 119
2024 10 10 08  03 05 37.082   +04 21 11.99  1.4041 2.3204 149.5 20.1 .093 119
2024 10 10 09  03 05 36.148   +04 21 14.12  1.4036 2.3201 149.5 20.1 .095 119
2024 10 10 10  03 05 35.212   +04 21 16.26  1.4031 2.3198 149.6 20.0 .097 119